Weather in Syurnogurt

Russia / Udmurt Republic     57°37′15″N   53°38′21″E
temp.,
°C
wind,
m/s
gust,
m/s
humid.,
%
clouds,
%
prec.,
mm/h
press.,
hPa
HPBL,
m
13 april, tue
tue1301:00+1ese2293100 0.0 104016
04:00+1se229399 0.0 104021
07:00+3sse259750 0.0 1039103
10:00+8sse348629 0.0 1038285
13:00+11s4571100 0.0 1036511
16:00+13ssw466697 0.0 1035685
19:00+9s388771 0.0 1034144
22:00+7ssw399480 0.0 1033166
14 april, wed
wed1401:00+7sw389688 0.0 1032137
04:00+6sw259594 0.0 103274
07:00+7sw259465 0.0 1032113
10:00+12sw357637 0.0 1031458
13:00+16sw45559 0.0 10291055
16:00+17sw45506 0.0 10281197
19:00+13ssw34715 0.0 102755
22:00+10ssw35815 0.0 102673
15 april, thu
thu1501:00+8ssw358953 0.0 102586
04:00+7ssw359033 0.0 102489
07:00+8ssw26845 0.0 1023158
10:00+13sw46645 0.0 1022544
13:00+16sw46566 0.0 10201277
16:00+17wsw455171 0.0 10191506
19:00+13w2675100 0.0 1018160
22:00
16 april, fri
fri1601:00+7ne5992100 2.5 1019358
04:00+5ne51092100 6.1 1020460
07:00+4ne51083100 0.4 1021546
10:00+5ne5970100 0.4 1021648
13:00+7ne675026 0.0 10221019
16:00+8ene56475 0.0 10221354
19:00+6ne48520 0.0 1023239
22:00+2nne37670 0.0 1023130
17 april, sat
sat1701:000nne37740 0.0 1024135
04:000n23723 0.0 102457
07:00+2nw35665 0.0 1024190
10:00+6nnw584772 0.0 10221696
13:00+6n7945100 0.3 10232141
16:00+6n71037100 0.3 10232529
19:00+2nne610380 0.0 10251132
22:00−1nne510460 0.0 1028680